Location: Unspecified
(0.0000°N, 0.0000°E)
Time: 13:20:40
(UTC+02:00)

CZ-4B R/B - Visible Passes

Search period start: 22 June 2018 00:00
Search period end: 02 July 2018 00:00
Orbit: 487 x 655 km, 97.8° (Epoch: 21 June)

Date Brightness Start Highest point End Pass type
(mag) Time Alt. Az. Time Alt. Az. Time Alt. Az.
22 Jun 5.9 05:14:43 10° NE 05:15:33 15° NE 05:15:33 15° NE visible
23 Jun 5.8 05:16:49 10° NNE 05:17:45 16° NE 05:17:45 16° NE visible
24 Jun 5.8 05:18:55 10° NNE 05:19:56 16° NE 05:19:56 16° NE visible
25 Jun 5.7 05:21:01 10° NNE 05:22:08 17° NE 05:22:08 17° NE visible
26 Jun 5.6 05:23:07 10° NNE 05:24:19 18° NNE 05:24:19 18° NNE visible
27 Jun 5.6 05:25:15 10° NNE 05:26:31 19° NNE 05:26:31 19° NNE visible
28 Jun 5.5 05:27:22 10° NNE 05:28:42 19° NNE 05:28:42 19° NNE visible
29 Jun 5.5 05:29:29 10° NNE 05:30:54 20° NNE 05:30:54 20° NNE visible
30 Jun 5.4 05:31:39 10° NNE 05:33:05 20° NNE 05:33:05 20° NNE visible
01 Jul 5.4 05:33:47 10° NNE 05:35:16 21° NNE 05:35:16 21° NNE visible
